Year,Month,Day,Hour,Minute,Value (Times are PST for temperature in C)
2017,05,05,07,47,14.70
2017,05,05,07,48,14.80
2017,05,05,07,49,14.80
2017,05,05,07,50,14.80
2017,05,05,07,51,14.80
2017,05,05,07,52,14.80
2017,05,05,07,53,14.90
2017,05,05,07,54,14.90
2017,05,05,07,55,14.90
2017,05,05,07,56,15.00
2017,05,05,07,57,15.00
2017,05,05,07,58,15.00
2017,05,05,07,59,15.10
2017,05,05,08,00,15.10
2017,05,05,08,01,15.20
2017,05,05,08,02,15.20
2017,05,05,08,03,15.20
2017,05,05,08,04,15.20
2017,05,05,08,05,15.30
2017,05,05,08,06,15.30
2017,05,05,08,07,15.30
2017,05,05,08,08,15.30
2017,05,05,08,09,15.30
2017,05,05,08,10,15.30
2017,05,05,08,11,15.30
2017,05,05,08,12,15.20
2017,05,05,08,13,15.20
2017,05,05,08,14,15.10
2017,05,05,08,15,15.10
2017,05,05,08,16,15.10
2017,05,05,08,17,15.00
2017,05,05,08,18,15.00
2017,05,05,08,19,14.90
2017,05,05,08,20,14.80
2017,05,05,08,21,14.80
2017,05,05,08,22,14.70
2017,05,05,08,23,14.60
2017,05,05,08,24,14.60
2017,05,05,08,25,14.50
2017,05,05,08,26,14.40
2017,05,05,08,27,14.40
2017,05,05,08,28,14.30
2017,05,05,08,29,14.30
2017,05,05,08,30,14.30
2017,05,05,08,31,14.30
2017,05,05,08,32,14.30
2017,05,05,08,33,14.30
2017,05,05,08,34,14.20
2017,05,05,08,35,14.20
2017,05,05,08,36,14.20
2017,05,05,08,37,14.10
2017,05,05,08,38,14.10
2017,05,05,08,39,14.10
2017,05,05,08,40,14.00
2017,05,05,08,41,14.00
2017,05,05,08,42,14.00
2017,05,05,08,43,14.00
2017,05,05,08,44,14.00
2017,05,05,08,45,14.00
2017,05,05,08,46,14.00
2017,05,05,08,47,14.10
2017,05,05,08,48,14.10
2017,05,05,08,49,14.20
2017,05,05,08,50,14.20
2017,05,05,08,51,14.20
2017,05,05,08,52,14.30
2017,05,05,08,53,14.40
2017,05,05,08,54,14.50
2017,05,05,08,55,14.60
2017,05,05,08,56,14.70
2017,05,05,08,57,14.80
2017,05,05,08,58,14.90
2017,05,05,08,59,15.00
2017,05,05,09,00,15.10
2017,05,05,09,01,15.10
2017,05,05,09,02,15.10
2017,05,05,09,03,15.10
2017,05,05,09,04,15.10
2017,05,05,09,05,15.10
2017,05,05,09,06,15.10
2017,05,05,09,07,15.00
2017,05,05,09,08,15.00
2017,05,05,09,09,15.00
2017,05,05,09,10,15.00
2017,05,05,09,11,15.00
2017,05,05,09,12,15.00
2017,05,05,09,13,15.00
2017,05,05,09,14,14.90
2017,05,05,09,15,14.90
2017,05,05,09,16,14.90
2017,05,05,09,17,14.80
2017,05,05,09,18,14.80
2017,05,05,09,19,14.80
2017,05,05,09,20,14.70
2017,05,05,09,21,14.70
2017,05,05,09,22,14.70
2017,05,05,09,23,14.60
2017,05,05,09,24,14.60
2017,05,05,09,25,14.60
2017,05,05,09,26,14.60
2017,05,05,09,27,14.60
2017,05,05,09,28,14.60
2017,05,05,09,29,14.60
2017,05,05,09,30,14.60
2017,05,05,09,31,14.60
2017,05,05,09,32,14.60
2017,05,05,09,33,14.60
2017,05,05,09,34,14.60
2017,05,05,09,35,14.60
2017,05,05,09,36,14.60
2017,05,05,09,37,14.60
2017,05,05,09,38,14.60
2017,05,05,09,39,14.60
2017,05,05,09,40,14.70
2017,05,05,09,41,14.60
2017,05,05,09,42,14.60
2017,05,05,09,43,14.60
2017,05,05,09,44,14.60
2017,05,05,09,45,14.60
2017,05,05,09,46,14.60
2017,05,05,09,47,14.50
2017,05,05,09,48,14.50
2017,05,05,09,49,14.50
2017,05,05,09,50,14.50
2017,05,05,09,51,14.50
2017,05,05,09,52,14.50
2017,05,05,09,53,14.60
2017,05,05,09,54,14.60
2017,05,05,09,55,14.60
2017,05,05,09,56,14.60
2017,05,05,09,57,14.70
2017,05,05,09,58,14.70
2017,05,05,09,59,14.80
2017,05,05,10,00,14.80
2017,05,05,10,01,14.90
2017,05,05,10,02,14.90
2017,05,05,10,03,15.00
2017,05,05,10,04,15.00
2017,05,05,10,05,15.10
2017,05,05,10,06,15.20
2017,05,05,10,07,15.10
2017,05,05,10,08,15.10
2017,05,05,10,09,15.20
2017,05,05,10,10,15.20
2017,05,05,10,11,15.20
2017,05,05,10,12,15.20
2017,05,05,10,13,15.20
2017,05,05,10,14,15.20
2017,05,05,10,15,15.10
2017,05,05,10,16,15.00
2017,05,05,10,17,14.90
2017,05,05,10,18,14.90
2017,05,05,10,19,14.90
2017,05,05,10,20,14.90
2017,05,05,10,21,14.90
2017,05,05,10,22,14.90
2017,05,05,10,23,14.90
2017,05,05,10,24,14.90
2017,05,05,10,25,14.90
2017,05,05,10,26,14.90
2017,05,05,10,27,14.90
2017,05,05,10,28,14.80
2017,05,05,10,29,14.80
2017,05,05,10,30,14.80
2017,05,05,10,31,14.80
2017,05,05,10,32,14.90
2017,05,05,10,33,15.00
2017,05,05,10,34,15.00
2017,05,05,10,35,15.00
2017,05,05,10,36,15.10
2017,05,05,10,37,15.10
2017,05,05,10,38,15.10
2017,05,05,10,39,15.20
2017,05,05,10,40,15.20
2017,05,05,10,41,15.20
2017,05,05,10,42,15.20
2017,05,05,10,43,15.20
2017,05,05,10,44,15.30
2017,05,05,10,45,15.30
2017,05,05,10,46,15.30
2017,05,05,10,47,15.30
2017,05,05,10,48,15.20
2017,05,05,10,49,15.10
2017,05,05,10,50,15.00
2017,05,05,10,51,14.90
2017,05,05,10,52,14.80
2017,05,05,10,53,14.80
2017,05,05,10,54,14.80
2017,05,05,10,55,14.80
2017,05,05,10,56,14.80
2017,05,05,10,57,14.70
2017,05,05,10,58,14.60
2017,05,05,10,59,14.50
2017,05,05,11,00,14.50
2017,05,05,11,01,14.40
2017,05,05,11,02,14.40
2017,05,05,11,03,14.30
2017,05,05,11,04,14.40
2017,05,05,11,05,14.40
2017,05,05,11,06,14.50
2017,05,05,11,07,14.50
2017,05,05,11,08,14.40
2017,05,05,11,09,14.40
2017,05,05,11,10,14.40
2017,05,05,11,11,14.30
2017,05,05,11,12,14.30
2017,05,05,11,13,14.20
2017,05,05,11,14,14.20
2017,05,05,11,15,14.10
2017,05,05,11,16,14.00
2017,05,05,11,17,14.00
2017,05,05,11,18,13.90
2017,05,05,11,19,13.90
2017,05,05,11,20,13.80
2017,05,05,11,21,13.80
2017,05,05,11,22,13.70
2017,05,05,11,23,13.70
2017,05,05,11,24,13.60
2017,05,05,11,25,13.50
2017,05,05,11,26,13.50
2017,05,05,11,27,13.40
2017,05,05,11,28,13.30
2017,05,05,11,29,13.20
2017,05,05,11,30,13.10
2017,05,05,11,31,13.00
2017,05,05,11,32,12.90
2017,05,05,11,33,12.90
2017,05,05,11,34,12.80
2017,05,05,11,35,12.80
2017,05,05,11,36,12.70
2017,05,05,11,37,12.70
2017,05,05,11,38,12.60
2017,05,05,11,39,12.60
2017,05,05,11,40,12.60
2017,05,05,11,41,12.60
2017,05,05,11,42,12.50
2017,05,05,11,43,12.50
2017,05,05,11,44,12.50
2017,05,05,11,45,12.50
2017,05,05,11,46,12.50
2017,05,05,11,47,12.50
2017,05,05,11,48,12.50
2017,05,05,11,49,12.50
2017,05,05,11,50,12.40
2017,05,05,11,51,12.40
2017,05,05,11,52,12.40
2017,05,05,11,53,12.30
2017,05,05,11,54,12.30
2017,05,05,11,55,12.30
2017,05,05,11,56,12.30
2017,05,05,11,57,12.30
2017,05,05,11,58,12.20
2017,05,05,11,59,12.20
2017,05,05,12,00,12.20
2017,05,05,12,01,12.20
2017,05,05,12,02,12.20
2017,05,05,12,03,12.20
2017,05,05,12,04,12.20
2017,05,05,12,05,12.20
2017,05,05,12,06,12.20
2017,05,05,12,07,12.20
2017,05,05,12,08,12.30
2017,05,05,12,09,12.30
2017,05,05,12,10,12.30
2017,05,05,12,11,12.30
2017,05,05,12,12,12.30
2017,05,05,12,13,12.40
2017,05,05,12,14,12.40
2017,05,05,12,15,12.50
2017,05,05,12,16,12.50
2017,05,05,12,17,12.50
2017,05,05,12,18,12.60
2017,05,05,12,19,12.60
2017,05,05,12,20,12.60
2017,05,05,12,21,12.70
2017,05,05,12,22,12.80
2017,05,05,12,23,12.80
2017,05,05,12,24,12.90
2017,05,05,12,25,12.90
2017,05,05,12,26,12.90
2017,05,05,12,27,12.90
2017,05,05,12,28,12.90
2017,05,05,12,29,12.90
2017,05,05,12,30,12.90
2017,05,05,12,31,13.00
2017,05,05,12,32,13.00
2017,05,05,12,33,13.00
2017,05,05,12,34,13.10
2017,05,05,12,35,13.10
2017,05,05,12,36,13.20
2017,05,05,12,37,13.30
2017,05,05,12,38,13.30
2017,05,05,12,39,13.30
2017,05,05,12,40,13.40
2017,05,05,12,41,13.50
2017,05,05,12,42,13.50
2017,05,05,12,43,13.60
2017,05,05,12,44,13.60
2017,05,05,12,45,13.60
2017,05,05,12,46,13.60
2017,05,05,12,47,13.60
2017,05,05,12,48,13.60
2017,05,05,12,49,13.70
2017,05,05,12,50,13.70
2017,05,05,12,51,13.70
2017,05,05,12,52,13.70
2017,05,05,12,53,13.70
2017,05,05,12,54,13.70
2017,05,05,12,55,13.70
2017,05,05,12,56,13.70
2017,05,05,12,57,13.70
2017,05,05,12,58,13.80
2017,05,05,12,59,13.80
2017,05,05,13,00,13.80
2017,05,05,13,01,13.80
2017,05,05,13,02,13.80
2017,05,05,13,03,13.90
2017,05,05,13,04,13.90
2017,05,05,13,05,14.00
2017,05,05,13,06,14.00
2017,05,05,13,07,14.00
2017,05,05,13,08,14.00
2017,05,05,13,09,14.00
2017,05,05,13,10,14.00
2017,05,05,13,11,14.10
2017,05,05,13,12,14.20
2017,05,05,13,13,14.20
2017,05,05,13,14,14.30
2017,05,05,13,15,14.40
2017,05,05,13,16,14.50
2017,05,05,13,17,14.50
2017,05,05,13,18,14.60
2017,05,05,13,19,14.60
2017,05,05,13,20,14.60
2017,05,05,13,21,14.70
2017,05,05,13,22,14.70
2017,05,05,13,23,14.70
2017,05,05,13,24,14.70
2017,05,05,13,25,14.70
2017,05,05,13,26,14.80
2017,05,05,13,27,14.80
2017,05,05,13,28,14.80
2017,05,05,13,29,14.80
2017,05,05,13,30,14.80
2017,05,05,13,31,14.70
2017,05,05,13,32,14.60
2017,05,05,13,33,14.50
2017,05,05,13,34,14.40
2017,05,05,13,35,14.30
2017,05,05,13,36,14.10
2017,05,05,13,37,14.00
2017,05,05,13,38,14.00
2017,05,05,13,39,14.00
2017,05,05,13,40,14.00
2017,05,05,13,41,14.00
2017,05,05,13,42,14.00
2017,05,05,13,43,14.00
2017,05,05,13,44,13.90
2017,05,05,13,45,13.90
2017,05,05,13,46,13.70
2017,05,05,13,47,13.60
2017,05,05,13,48,13.40
2017,05,05,13,49,13.30
2017,05,05,13,50,13.20
2017,05,05,13,51,13.20
2017,05,05,13,52,13.10
2017,05,05,13,53,13.10
2017,05,05,13,54,13.20
2017,05,05,13,55,13.30
2017,05,05,13,56,13.30
2017,05,05,13,57,13.30
2017,05,05,13,58,13.30
2017,05,05,13,59,13.30
2017,05,05,14,00,13.30
2017,05,05,14,01,13.30
2017,05,05,14,02,13.30
2017,05,05,14,03,13.30
2017,05,05,14,04,13.30
2017,05,05,14,05,13.30
2017,05,05,14,06,13.30
2017,05,05,14,07,13.30
2017,05,05,14,08,13.30
2017,05,05,14,09,13.30
2017,05,05,14,10,13.30
2017,05,05,14,11,13.30
2017,05,05,14,12,13.30
2017,05,05,14,13,13.30
2017,05,05,14,14,13.30
2017,05,05,14,15,13.30
2017,05,05,14,16,13.40
2017,05,05,14,17,13.40
2017,05,05,14,18,13.40
2017,05,05,14,19,13.50
2017,05,05,14,20,13.50
2017,05,05,14,21,13.50
2017,05,05,14,22,13.50
2017,05,05,14,23,13.60
2017,05,05,14,24,13.60
2017,05,05,14,25,13.70
2017,05,05,14,26,13.70
2017,05,05,14,27,13.60
2017,05,05,14,28,13.60
2017,05,05,14,29,13.60
2017,05,05,14,30,13.60
2017,05,05,14,31,13.60
2017,05,05,14,32,13.70
2017,05,05,14,33,13.70
2017,05,05,14,34,13.70
2017,05,05,14,35,13.80
2017,05,05,14,36,13.90
2017,05,05,14,37,13.90
2017,05,05,14,38,13.90
2017,05,05,14,39,14.00
2017,05,05,14,40,14.00
2017,05,05,14,41,14.00
2017,05,05,14,42,14.00
2017,05,05,14,43,14.00
2017,05,05,14,44,14.00
2017,05,05,14,45,13.90
2017,05,05,14,46,13.80
2017,05,05,14,47,13.70
2017,05,05,14,48,13.70
2017,05,05,14,49,13.70
2017,05,05,14,50,13.70
2017,05,05,14,51,13.70
2017,05,05,14,52,13.70
2017,05,05,14,53,13.70
2017,05,05,14,54,13.60
2017,05,05,14,55,13.60
2017,05,05,14,56,13.50
2017,05,05,14,57,13.40
2017,05,05,14,58,13.40
2017,05,05,14,59,13.40
2017,05,05,15,00,13.40
2017,05,05,15,01,13.40
2017,05,05,15,02,13.40
2017,05,05,15,03,13.40
2017,05,05,15,04,13.40
2017,05,05,15,05,13.50
2017,05,05,15,06,13.50
2017,05,05,15,07,13.60
2017,05,05,15,08,13.70
2017,05,05,15,09,13.70
2017,05,05,15,10,13.70
2017,05,05,15,11,13.80
2017,05,05,15,12,13.80
2017,05,05,15,13,13.70
2017,05,05,15,14,13.70
2017,05,05,15,15,13.70
2017,05,05,15,16,13.70
2017,05,05,15,17,13.60
2017,05,05,15,18,13.60
2017,05,05,15,19,13.50
2017,05,05,15,20,13.50
2017,05,05,15,21,13.50
2017,05,05,15,22,13.50
2017,05,05,15,23,13.60
2017,05,05,15,24,13.60
2017,05,05,15,25,13.70
2017,05,05,15,26,13.70
2017,05,05,15,27,13.70
2017,05,05,15,28,13.70
2017,05,05,15,29,13.70
2017,05,05,15,30,13.70
2017,05,05,15,31,13.60
2017,05,05,15,32,13.50
2017,05,05,15,33,13.40
2017,05,05,15,34,13.40
2017,05,05,15,35,13.40
2017,05,05,15,36,13.40
2017,05,05,15,37,13.40
2017,05,05,15,38,13.50
2017,05,05,15,39,13.60
2017,05,05,15,40,13.70
2017,05,05,15,41,13.80
2017,05,05,15,42,13.90
2017,05,05,15,43,13.90
2017,05,05,15,44,13.90
2017,05,05,15,45,14.00
2017,05,05,15,46,14.00
2017,05,05,15,47,14.00
2017,05,05,15,48,14.10
2017,05,05,15,49,14.10
2017,05,05,15,50,14.20
2017,05,05,15,51,14.20
2017,05,05,15,52,14.10
2017,05,05,15,53,13.90
2017,05,05,15,54,13.80
2017,05,05,15,55,13.70
2017,05,05,15,56,13.80
2017,05,05,15,57,13.80
2017,05,05,15,58,13.90
2017,05,05,15,59,13.80
2017,05,05,16,00,13.80
2017,05,05,16,01,13.80
2017,05,05,16,02,13.70
2017,05,05,16,03,13.70
2017,05,05,16,04,13.70
2017,05,05,16,05,13.70
2017,05,05,16,06,13.70
2017,05,05,16,07,13.60
2017,05,05,16,08,13.60
2017,05,05,16,09,13.60
2017,05,05,16,10,13.60
2017,05,05,16,11,13.70
2017,05,05,16,12,13.60
2017,05,05,16,13,13.60
2017,05,05,16,14,13.50
2017,05,05,16,15,13.40
2017,05,05,16,16,13.40
2017,05,05,16,17,13.30
2017,05,05,16,18,13.20
2017,05,05,16,19,13.20
2017,05,05,16,20,13.20
2017,05,05,16,21,13.20
2017,05,05,16,22,13.10
2017,05,05,16,23,13.10
2017,05,05,16,24,13.10
2017,05,05,16,25,13.10
2017,05,05,16,26,13.10
2017,05,05,16,27,13.10
2017,05,05,16,28,13.10
2017,05,05,16,29,13.10
2017,05,05,16,30,13.10
2017,05,05,16,31,13.00
2017,05,05,16,32,13.00
2017,05,05,16,33,13.00
2017,05,05,16,34,13.00
2017,05,05,16,35,13.00
2017,05,05,16,36,13.00
2017,05,05,16,37,13.00
2017,05,05,16,38,13.00
2017,05,05,16,39,13.00
2017,05,05,16,40,13.00
2017,05,05,16,41,12.90
2017,05,05,16,42,12.90
2017,05,05,16,43,12.80
2017,05,05,16,44,12.80
2017,05,05,16,45,12.90
2017,05,05,16,46,12.90
2017,05,05,16,47,12.90
2017,05,05,16,48,12.90
2017,05,05,16,49,12.80
2017,05,05,16,50,12.80
2017,05,05,16,51,12.80
2017,05,05,16,52,12.80
2017,05,05,16,53,12.80
2017,05,05,16,54,12.80
2017,05,05,16,55,12.80
2017,05,05,16,56,12.80
2017,05,05,16,57,12.80
2017,05,05,16,58,12.80
2017,05,05,16,59,12.80
2017,05,05,17,00,12.80
2017,05,05,17,01,12.80
2017,05,05,17,02,12.80
2017,05,05,17,03,12.80
2017,05,05,17,04,12.80
2017,05,05,17,05,12.80
2017,05,05,17,06,12.80
2017,05,05,17,07,12.80
2017,05,05,17,08,12.80
2017,05,05,17,09,12.90
2017,05,05,17,10,12.90
2017,05,05,17,11,13.00
2017,05,05,17,12,13.00
2017,05,05,17,13,13.00
2017,05,05,17,14,13.00
2017,05,05,17,15,13.00
2017,05,05,17,16,13.00
2017,05,05,17,17,13.00
2017,05,05,17,18,13.00
2017,05,05,17,19,12.90
2017,05,05,17,20,12.80
2017,05,05,17,21,12.90
2017,05,05,17,22,12.90
2017,05,05,17,23,12.90
2017,05,05,17,24,12.90
2017,05,05,17,25,12.90
2017,05,05,17,26,12.80
2017,05,05,17,27,12.80
2017,05,05,17,28,12.80
2017,05,05,17,29,12.90
2017,05,05,17,30,12.90
2017,05,05,17,31,13.00
2017,05,05,17,32,13.00
2017,05,05,17,33,13.00
2017,05,05,17,34,12.90
2017,05,05,17,35,12.80
2017,05,05,17,36,12.80
2017,05,05,17,37,12.80
2017,05,05,17,38,12.80
2017,05,05,17,39,12.80
2017,05,05,17,40,12.80
2017,05,05,17,41,12.80
2017,05,05,17,42,12.80
2017,05,05,17,43,12.70
2017,05,05,17,44,12.60
2017,05,05,17,45,12.60
2017,05,05,17,46,12.60
2017,05,05,17,47,12.60
2017,05,05,17,48,12.60
2017,05,05,17,49,12.60
2017,05,05,17,50,12.60
2017,05,05,17,51,12.60
2017,05,05,17,52,12.60
2017,05,05,17,53,12.60
2017,05,05,17,54,12.60
2017,05,05,17,55,12.60
2017,05,05,17,56,12.60
2017,05,05,17,57,12.60
2017,05,05,17,58,12.60
2017,05,05,17,59,12.60
2017,05,05,18,00,12.50
2017,05,05,18,01,12.50
2017,05,05,18,02,12.50
2017,05,05,18,03,12.50
2017,05,05,18,04,12.50
2017,05,05,18,05,12.50
2017,05,05,18,06,12.40
2017,05,05,18,07,12.40
2017,05,05,18,08,12.30
2017,05,05,18,09,12.30
2017,05,05,18,10,12.30
2017,05,05,18,11,12.30
2017,05,05,18,12,12.30
2017,05,05,18,13,12.30
2017,05,05,18,14,12.30
2017,05,05,18,15,12.20
2017,05,05,18,16,12.20
2017,05,05,18,17,12.30
2017,05,05,18,18,12.30
2017,05,05,18,19,12.30
2017,05,05,18,20,12.40
2017,05,05,18,21,12.40
2017,05,05,18,22,12.40
2017,05,05,18,23,12.50
2017,05,05,18,24,12.50
2017,05,05,18,25,12.50
2017,05,05,18,26,12.50
2017,05,05,18,27,12.50
2017,05,05,18,28,12.50
2017,05,05,18,29,12.50
2017,05,05,18,30,12.40
2017,05,05,18,31,12.40
2017,05,05,18,32,12.40
2017,05,05,18,33,12.30
2017,05,05,18,34,12.30
2017,05,05,18,35,12.30
2017,05,05,18,36,12.30
2017,05,05,18,37,12.30
2017,05,05,18,38,12.30
2017,05,05,18,39,12.30
2017,05,05,18,40,12.30
2017,05,05,18,41,12.20
2017,05,05,18,42,12.20
2017,05,05,18,43,12.20
2017,05,05,18,44,12.20
2017,05,05,18,45,12.20
2017,05,05,18,46,12.10
2017,05,05,18,47,12.10
2017,05,05,18,48,12.00
2017,05,05,18,49,12.00
2017,05,05,18,50,12.00
2017,05,05,18,51,11.90
2017,05,05,18,52,11.90
2017,05,05,18,53,11.90
2017,05,05,18,54,11.90
2017,05,05,18,55,11.90
2017,05,05,18,56,11.90
2017,05,05,18,57,11.80
2017,05,05,18,58,11.90
2017,05,05,18,59,11.90
2017,05,05,19,00,11.90
2017,05,05,19,01,11.90
2017,05,05,19,02,11.90
2017,05,05,19,03,11.90
2017,05,05,19,04,12.00
2017,05,05,19,05,11.90
2017,05,05,19,06,11.90
2017,05,05,19,07,11.90
2017,05,05,19,08,11.90
2017,05,05,19,09,11.80
2017,05,05,19,10,11.80
2017,05,05,19,11,11.80
2017,05,05,19,12,11.80
2017,05,05,19,13,11.80
2017,05,05,19,14,11.80
2017,05,05,19,15,11.70
2017,05,05,19,16,11.70
2017,05,05,19,17,11.70
2017,05,05,19,18,11.70
2017,05,05,19,19,11.70
2017,05,05,19,20,11.70
2017,05,05,19,21,11.60
2017,05,05,19,22,11.60
2017,05,05,19,23,11.60
2017,05,05,19,24,11.40
2017,05,05,19,25,11.40
2017,05,05,19,26,11.40
2017,05,05,19,27,11.40
2017,05,05,19,28,11.30
2017,05,05,19,29,11.20
2017,05,05,19,30,11.20
2017,05,05,19,31,11.20
2017,05,05,19,32,11.20
2017,05,05,19,33,11.10
2017,05,05,19,34,11.10
2017,05,05,19,35,11.00
2017,05,05,19,36,10.90
2017,05,05,19,37,10.80
2017,05,05,19,38,10.80
2017,05,05,19,39,10.70
2017,05,05,19,40,10.60
2017,05,05,19,41,10.60
2017,05,05,19,42,10.50
2017,05,05,19,43,10.40
2017,05,05,19,44,10.40
2017,05,05,19,45,10.40
2017,05,05,19,46,10.30
2017,05,05,19,47,10.30
2017,05,05,19,48,10.30
2017,05,05,19,49,10.30
2017,05,05,19,50,10.30
2017,05,05,19,51,10.30
2017,05,05,19,52,10.30
2017,05,05,19,53,10.30
2017,05,05,19,54,10.30
2017,05,05,19,55,10.30
2017,05,05,19,56,10.30
2017,05,05,19,57,10.30
2017,05,05,19,58,10.40
2017,05,05,19,59,10.40
2017,05,05,20,00,10.40
2017,05,05,20,01,10.40
2017,05,05,20,02,10.40
2017,05,05,20,03,10.40
2017,05,05,20,04,10.50
2017,05,05,20,05,10.60
2017,05,05,20,06,10.60
2017,05,05,20,07,10.60
2017,05,05,20,08,10.60
2017,05,05,20,09,10.60
2017,05,05,20,10,10.60
2017,05,05,20,11,10.60
2017,05,05,20,12,10.60
2017,05,05,20,13,10.60
2017,05,05,20,14,10.50
2017,05,05,20,15,10.40
2017,05,05,20,16,10.40
2017,05,05,20,17,10.40
2017,05,05,20,18,10.50
2017,05,05,20,19,10.50
2017,05,05,20,20,10.60
2017,05,05,20,21,10.50
2017,05,05,20,22,10.40
2017,05,05,20,23,10.40
2017,05,05,20,24,10.40
2017,05,05,20,25,10.40
2017,05,05,20,26,10.40
2017,05,05,20,27,10.40
2017,05,05,20,28,10.40
2017,05,05,20,29,10.40
2017,05,05,20,30,10.40
2017,05,05,20,31,10.40
2017,05,05,20,32,10.40
2017,05,05,20,33,10.40
